Regional Weather Roundup
Issued by NWS

Home | Current Version | Previous Version | Graphics & Text | Print | Product List | Glossary On
Versions: 1 2 3 4 5 6 7 8 9 10 11 12 13 14 15 16 17 18 19 20 21 22 23 24 25 26 27 28 29 30 31 32 33 34 35 36 37 38 39 40 41 42 43 44 45 46 47 48 49 50
000
ASUS43 KBIS 250320
RWRND

NORTH DAKOTA REGIONAL WEATHER ROUNDUP
NATIONAL WEATHER SERVICE BISMARCK ND
900 PM CST WED DEC 24 2014

NOTE: "FAIR" INDICATES FEW OR NO CLOUDS BELOW 12,000 FEET WITH NO
SIGNIFICANT WEATHER AND/OR OBSTRUCTIONS TO VISIBILITY.


NDZ001>003-009>011-017-250400-
NORTHWEST NORTH DAKOTA

CITY           SKY/WX    TMP DP  RH WIND       PRES   REMARKS
WILLISTON      PTCLDY    24  20  84 SW5       29.49S WCI  18
MINOT          CLEAR     28  22  78 W12       29.43S WCI  18
MINOT AFB      CLEAR     27  26  98 W16       29.42F WCI  14
$$

NDZ018>021-031>035-040>046-250400-
SOUTHWEST NORTH DAKOTA

CITY           SKY/WX    TMP DP  RH WIND       PRES   REMARKS
BISMARCK       CLOUDY    29  27  92 CALM      29.47S
DICKINSON      CLOUDY    33  30  88 NW7       29.46R
GARRISON         N/A     28  25  88 NW9       29.45R WCI  19
HETTINGER ARPT CLOUDY    33  31  92 NW6       29.46S
$$

NDZ004>008-012>016-024-026-027-054-250400-
NORTHEAST NORTH DAKOTA

CITY           SKY/WX    TMP DP  RH WIND       PRES   REMARKS
GRAND FORKS    CLOUDY    29  27  92 S13       29.43F WCI  19
GRND FRKS AFB  CLOUDY    29  29  99 SW8       29.43F
DEVILS LAKE    PTCLDY    25  19  80 W8        29.39S WCI  16
$$

NDZ022-023-025-028>030-036>039-047>053-250400-
SOUTHEAST NORTH DAKOTA

CITY           SKY/WX    TMP DP  RH WIND       PRES   REMARKS
FARGO          CLOUDY    29  26  89 S15       29.48F WCI  18
JAMESTOWN      CLOUDY    30  26  85 SW6       29.43F
$$




USA.gov is the U.S. government's official web portal to all federal, state and local government web resources and services.